CHINASAT 2C (ZX 2C)

Last updated on Sat Apr 13 2024 01:02:38 GMT+0100 (British Summer Time)

1 41021U 15063A 24103.63461171 -.00000333 00000+0 00000+0 0 9990 2 41021 0.0486 41.8355 0003400 349.9941 141.4008 1.00272167 31020
UTC large
Height (km)
Speed (km/s)
/
Latitude / Longitude
Inclination (degrees)
Orbital Period (minutes)
Azimuth
Elevation
Range (km)
Doppler Factor

Next 0 passes for location: London (51.5072 / 0.1276)

Sorry there are no passes over London.